Stündliche Wetter Labowa

Heute, 14 Mai, Freitag

Zeit Temperatur Niederschläge Wind Luftdruck Luftfeuchtigkeit
00:00 +9°C° 0 mm 2 m/S 707 mmHg 95%
01:00 +9°C° 0 mm 2 m/S 707 mmHg 94%
02:00 +10°C° 0.2 mm 2 m/S 707 mmHg 95%
03:00 +11°C° 0.2 mm 1 m/S 707 mmHg 96%
04:00 +11°C° 0.2 mm 1 m/S 707 mmHg 96%
05:00 +11°C° 1 mm 1 m/S 707 mmHg 97%
06:00 +11°C° 1 mm 1 m/S 707 mmHg 97%
07:00 +11°C° 1 mm 1 m/S 708 mmHg 97%
08:00 +11°C° 0.6 mm 1 m/S 708 mmHg 95%
09:00 +12°C° 0.6 mm 2 m/S 709 mmHg 94%
10:00 +12°C° 0.6 mm 2 m/S 709 mmHg 92%
11:00 +12°C° 0.5 mm 2 m/S 709 mmHg 91%
12:00 +13°C° 0.5 mm 2 m/S 710 mmHg 90%
13:00 +13°C° 0.5 mm 2 m/S 710 mmHg 88%
14:00 +13°C° 0.4 mm 2 m/S 710 mmHg 88%
15:00 +13°C° 0.4 mm 2 m/S 711 mmHg 88%
16:00 +13°C° 0.4 mm 2 m/S 711 mmHg 87%
17:00 +12°C° 0.2 mm 2 m/S 711 mmHg 89%
18:00 +11°C° 0.2 mm 1 m/S 711 mmHg 91%
19:00 +10°C° 0.2 mm 1 m/S 712 mmHg 93%
20:00 +10°C° 0 mm 1 m/S 712 mmHg 93%
21:00 +10°C° 0 mm 1 m/S 713 mmHg 94%
22:00 +10°C° 0 mm 1 m/S 713 mmHg 94%
23:00 +10°C° 0 mm 1 m/S 713 mmHg 94%

Morgen, 15 Mai, Samstag

Zeit Temperatur Niederschläge Wind Luftdruck Luftfeuchtigkeit
00:00 +10°C° 0 mm 1 m/S 713 mmHg 94%
01:00 +9°C° 0 mm 0 m/S 713 mmHg 93%
02:00 +10°C° 0 mm 1 m/S 713 mmHg 94%
03:00 +10°C° 0 mm 1 m/S 713 mmHg 94%
04:00 +10°C° 0 mm 1 m/S 713 mmHg 94%
05:00 +10°C° 0 mm 1 m/S 714 mmHg 92%
06:00 +11°C° 0 mm 1 m/S 714 mmHg 90%
07:00 +11°C° 0 mm 1 m/S 714 mmHg 88%
08:00 +12°C° 0.1 mm 1 m/S 714 mmHg 83%
09:00 +13°C° 0.1 mm 1 m/S 715 mmHg 79%
10:00 +14°C° 0.1 mm 2 m/S 715 mmHg 74%
11:00 +15°C° 0.1 mm 2 m/S 714 mmHg 71%
12:00 +15°C° 0.1 mm 2 m/S 714 mmHg 68%
13:00 +16°C° 0.1 mm 2 m/S 714 mmHg 65%
14:00 +16°C° 0.1 mm 2 m/S 714 mmHg 65%
15:00 +17°C° 0.1 mm 2 m/S 714 mmHg 65%
16:00 +17°C° 0.1 mm 2 m/S 713 mmHg 64%
17:00 +15°C° 0.1 mm 2 m/S 713 mmHg 71%
18:00 +14°C° 0.1 mm 2 m/S 713 mmHg 78%
19:00 +13°C° 0.1 mm 2 m/S 713 mmHg 85%
20:00 +12°C° 0 mm 2 m/S 713 mmHg 88%
21:00 +10°C° 0 mm 2 m/S 713 mmHg 91%
22:00 +9°C° 0 mm 2 m/S 713 mmHg 95%
23:00 +9°C° 0 mm 2 m/S 713 mmHg 95%

übermorgen, 16 Mai, Sonntag

Zeit Temperatur Niederschläge Wind Luftdruck Luftfeuchtigkeit
00:00 +9°C° 0 mm 2 m/S 713 mmHg 96%
01:00 +8°C° 0 mm 2 m/S 712 mmHg 96%
02:00 +8°C° 0 mm 2 m/S 712 mmHg 96%
03:00 +8°C° 0 mm 2 m/S 712 mmHg 96%
04:00 +8°C° 0 mm 2 m/S 712 mmHg 96%
05:00 +10°C° 0 mm 2 m/S 712 mmHg 91%
06:00 +12°C° 0 mm 2 m/S 712 mmHg 86%
07:00 +14°C° 0 mm 2 m/S 712 mmHg 81%
08:00 +14°C° 0.3 mm 2 m/S 712 mmHg 79%
09:00 +14°C° 0.3 mm 3 m/S 712 mmHg 78%
10:00 +14°C° 0.3 mm 3 m/S 712 mmHg 76%
11:00 +14°C° 0.6 mm 3 m/S 712 mmHg 77%
12:00 +14°C° 0.6 mm 3 m/S 712 mmHg 79%
13:00 +14°C° 0.6 mm 3 m/S 712 mmHg 80%
14:00 +14°C° 1.5 mm 2 m/S 712 mmHg 85%
15:00 +12°C° 1.5 mm 2 m/S 712 mmHg 91%
16:00 +10°C° 1.5 mm 2 m/S 712 mmHg 96%
17:00 +11°C° 0.5 mm 1 m/S 712 mmHg 96%
18:00 +10°C° 0.5 mm 1 m/S 712 mmHg 97%
19:00 +9°C° 0.5 mm 0 m/S 712 mmHg 97%
20:00 +9°C° 0 mm 1 m/S 713 mmHg 96%
21:00 +9°C° 0 mm 1 m/S 713 mmHg 96%
22:00 +8°C° 0 mm 1 m/S 713 mmHg 95%
23:00 +8°C° 0 mm 1 m/S 713 mmHg 95%

17 Mai, Montag

Zeit Temperatur Niederschläge Wind Luftdruck Luftfeuchtigkeit
00:00 +7°C° 0 mm 1 m/S 713 mmHg 94%
01:00 +7°C° 0 mm 1 m/S 713 mmHg 94%
02:00 +7°C° 0 mm 1 m/S 713 mmHg 94%
03:00 +7°C° 0 mm 1 m/S 713 mmHg 94%
04:00 +7°C° 0 mm 1 m/S 713 mmHg 94%
05:00 +8°C° 0 mm 1 m/S 713 mmHg 90%
06:00 +10°C° 0 mm 1 m/S 713 mmHg 87%
07:00 +12°C° 0 mm 1 m/S 713 mmHg 83%
08:00 +14°C° 0 mm 2 m/S 713 mmHg 74%
09:00 +16°C° 0 mm 2 m/S 713 mmHg 65%
10:00 +17°C° 0 mm 2 m/S 713 mmHg 56%
11:00 +17°C° 0.3 mm 3 m/S 713 mmHg 62%
12:00 +16°C° 0.3 mm 3 m/S 713 mmHg 69%
13:00 +15°C° 0.3 mm 4 m/S 712 mmHg 75%
14:00 +14°C° 0.7 mm 3 m/S 712 mmHg 82%
15:00 +13°C° 0.7 mm 2 m/S 712 mmHg 88%
16:00 +12°C° 0.7 mm 1 m/S 713 mmHg 94%
17:00 +12°C° 0.6 mm 1 m/S 712 mmHg 95%
18:00 +11°C° 0.6 mm 1 m/S 712 mmHg 96%
19:00 +11°C° 0.6 mm 1 m/S 712 mmHg 97%
20:00 +11°C° 1 mm 1 m/S 713 mmHg 96%
21:00 +10°C° 1 mm 1 m/S 713 mmHg 96%
22:00 +9°C° 1 mm 2 m/S 713 mmHg 96%
23:00 +9°C° 0.4 mm 2 m/S 713 mmHg 96%

18 Mai, Dienstag

Zeit Temperatur Niederschläge Wind Luftdruck Luftfeuchtigkeit
00:00 +10°C° 0.4 mm 1 m/S 713 mmHg 95%
01:00 +10°C° 0.4 mm 1 m/S 713 mmHg 95%
02:00 +9°C° 0 mm 1 m/S 713 mmHg 95%
03:00 +7°C° 0 mm 2 m/S 713 mmHg 95%
04:00 +6°C° 0 mm 2 m/S 713 mmHg 94%
05:00 +8°C° 0 mm 2 m/S 714 mmHg 90%
06:00 +9°C° 0 mm 2 m/S 714 mmHg 85%
07:00 +10°C° 0 mm 2 m/S 714 mmHg 80%
08:00 +13°C° 0 mm 2 m/S 714 mmHg 71%
09:00 +14°C° 0 mm 2 m/S 714 mmHg 61%
10:00 +16°C° 0 mm 3 m/S 714 mmHg 51%
11:00 +16°C° 0.4 mm 3 m/S 714 mmHg 55%
12:00 +14°C° 0.4 mm 3 m/S 714 mmHg 59%
13:00 +14°C° 0.4 mm 3 m/S 714 mmHg 63%
14:00 +15°C° 0.7 mm 2 m/S 714 mmHg 69%
15:00 +14°C° 0.7 mm 2 m/S 714 mmHg 74%
16:00 +14°C° 0.7 mm 2 m/S 714 mmHg 79%
17:00 +12°C° 0.4 mm 2 m/S 714 mmHg 83%
18:00 +11°C° 0.4 mm 1 m/S 714 mmHg 87%
19:00 +10°C° 0.4 mm 1 m/S 715 mmHg 90%
20:00 +9°C° 0 mm 1 m/S 715 mmHg 92%
21:00 +8°C° 0 mm 1 m/S 715 mmHg 93%
22:00 +8°C° 0 mm 1 m/S 715 mmHg 94%
23:00 +7°C° 0 mm 1 m/S 716 mmHg 94%

19 Mai, Mittwoch

Zeit Temperatur Niederschläge Wind Luftdruck Luftfeuchtigkeit
00:00 +7°C° 0 mm 1 m/S 716 mmHg 94%
01:00 +7°C° 0 mm 1 m/S 716 mmHg 95%
02:00 +6°C° 0 mm 1 m/S 716 mmHg 95%
03:00 +6°C° 0 mm 1 m/S 716 mmHg 95%
04:00 +6°C° 0 mm 1 m/S 716 mmHg 95%
05:00 +7°C° 0 mm 1 m/S 716 mmHg 92%
06:00 +9°C° 0 mm 1 m/S 717 mmHg 90%
07:00 +10°C° 0 mm 1 m/S 717 mmHg 87%
08:00 +10°C° 0.3 mm 2 m/S 717 mmHg 84%
09:00 +12°C° 0.3 mm 2 m/S 717 mmHg 81%
10:00 +11°C° 0.3 mm 3 m/S 718 mmHg 78%
11:00 +12°C° 0.2 mm 3 m/S 718 mmHg 75%
12:00 +13°C° 0.2 mm 2 m/S 718 mmHg 72%
13:00 +13°C° 0.2 mm 2 m/S 718 mmHg 69%
14:00 +12°C° 0.2 mm 3 m/S 718 mmHg 70%
15:00 +12°C° 0.2 mm 3 m/S 718 mmHg 71%
16:00 +12°C° 0.2 mm 3 m/S 718 mmHg 72%
17:00 +11°C° 0.2 mm 3 m/S 718 mmHg 78%
18:00 +9°C° 0.2 mm 2 m/S 719 mmHg 84%
19:00 +8°C° 0.2 mm 2 m/S 719 mmHg 90%
20:00 +8°C° 0 mm 1 m/S 719 mmHg 91%
21:00 +8°C° 0 mm 1 m/S 719 mmHg 92%
22:00 +7°C° 0 mm 1 m/S 720 mmHg 94%
23:00 +6°C° 0 mm 1 m/S 720 mmHg 94%
Mehr zeigen

Wir brauchen deine Erlaubnis

Meteoprog und unser Service Anbieter werden persönliche Daten aufbewahren, so wie Cookies, Geräte Bezeichnung oder ähnliche Technologien von deinem Gerät und Prozess, so wie Persönliche Daten Inhalte und Werbungen, genauso wie social Media und den Verkehr zu analysieren.

  • Aufbewahrung und/oder Zugang zu deiner Geräte Informationen.

    Cookies, Geräte Bezeichnung oder andere Informationen, können aufbewahrt oder Zugang zu deinem Gerät erhalten, für den Grund, der oben angegeben wird.

  • Personalisierte Werbung und Inhalte, Messungen, Einblick in das Publikum und Produkt Entwicklung.

    Werbungen und Inhalte können personalisiert werden, basierend auf ein Profil. Mehr Daten können besser personalisierte Werbungen und Inhalte hinzufügen. Werbung und Inhalte können gezeigt und gemessen werden. Einblicke über das Publikum, welche die Werbung gesehen haben und den Inhalt, können abgeleitet werden. So wie Daten können genutzt werden, um es zu verbessern oder die Benutzer Erfahrung zu verbessern das System und die Software.

Wenn du “Ich stimme zu” klickst, erlaubst du uns, die Cookies zu benutzen die Geräte Bezeichnung, den Web oder ähnliche Technologien zu benutzen. Deine Settings, können in deinem Gerät bei deinem Browser geändert werden.

Für den bestimmten Zweck, berechtigten Interessen beruhen darauf, mehr als auf den Inhalt. Du kannst mehr darüber in unseren Privaten und Cookie Politik lesen.